Weather History for Covington, KY

Change the Weather History Date:

Monday, December 9, 2013

  Actual Average Record
Temperature  
Mean Temperature 29 °F 36 °F  
Max Temperature 33 °F 43 °F 66 °F (1946)
Min Temperature 24 °F 28 °F -8 °F (1917)
Degree Days  
Heating Degree Days 36 29  
Month to date heating degree days 236 251  
Since 1 July heating degree days 1272 1211  
Cooling Degree Days 0 0  
Month to date cooling degree days 0 0  
Year to date cooling degree days 1150 1121  
Moisture  
Dew Point 26 °F    
Average Humidity 86    
Maximum Humidity 96    
Minimum Humidity 75    
Precipitation  
Precipitation T in 0.12 in 1.50 in (1952)
Month to date precipitation 1.69 1.01  
Year to date precipitation 46.26 40.16  
Snow  
Snow 0.00 in 0.10 in 4.40 in (1961)
Month to date snowfall 6.5 0.9  
Since 1 July snowfall 8.9 1.7  
Snow Depth 3.00 in    
Sea Level Pressure  
Sea Level Pressure 30.14 in    
Wind  
Wind Speed 8 mph (WSW)    
Max Wind Speed 18 mph    
Max Gust Speed 22 mph    
Visibility 8 miles    
Events      
T = Trace of Precipitation, MM = Missing Value Source: NWS Daily Summary

Daily Weather History Graph

Daily Weather History Graph

Search for Another Location

Airport:

Trip Planner

Search our weather history database for the weather conditions in past years. The results will help you decide how hot, cold, wet, or windy it might be!

Date:

Astronomy

Dec. 09, 2013 Rise Set
Actual Time 7:46 AM EST 5:16 PM EST
Civil Twilight 7:16 AM EST 5:46 PM EST
Nautical Twilight 6:42 AM EST 6:19 PM EST
Astronomical Twilight 6:10 AM EST 6:51 PM EST
Moon 12:41 PM EST (12/9) 12:02 AM EST (12/9)
Length of Visible Light 10h 29m
Length of Day
9h 29m
Waxing Crescent, 51% of the Moon is Illuminated
Dec 9
Waxing Crescent
Dec 17
Full
Dec 25
Last Quarter
Jan 1
New
Jan 7
First Quarter

Hourly Weather History & Observations

Time (EST) Temp. Windchill Dew Point Humidity Pressure Visibility Wind Dir Wind Speed Gust Speed Precip Events Conditions
12:52 AM 33.1 °F 26.9 °F 32.0 °F 96% 30.02 in 3.0 mi SW 6.9 mph - 0.00 in   Overcast
1:52 AM 33.1 °F 25.5 °F 32.0 °F 96% 30.01 in 3.0 mi SW 9.2 mph - 0.00 in   Light Drizzle
2:52 AM 33.1 °F 26.9 °F 32.0 °F 96% 30.02 in 4.0 mi SW 6.9 mph - 0.00 in   Light Drizzle
3:52 AM 33.1 °F 26.9 °F 32.0 °F 96% 30.04 in 3.0 mi WSW 6.9 mph - 0.00 in   Light Drizzle
4:52 AM 33.1 °F 24.4 °F 30.9 °F 92% 30.04 in 4.0 mi West 11.5 mph - 0.00 in   Light Drizzle
5:52 AM 32.0 °F 23.6 °F 30.9 °F 96% 30.06 in 6.0 mi West 10.4 mph - 0.00 in   Overcast
6:31 AM 32.0 °F 23.0 °F 28.4 °F 87% 30.06 in 10.0 mi West 11.5 mph 19.6 mph N/A   Overcast
6:42 AM 32.0 °F 23.6 °F 28.4 °F 87% 30.06 in 10.0 mi West 10.4 mph - N/A   Overcast
6:52 AM 32.0 °F 23.0 °F 30.0 °F 92% 30.09 in 10.0 mi WSW 11.5 mph - N/A   Overcast
6:59 AM 30.2 °F 20.8 °F 28.4 °F 93% 30.07 in 10.0 mi WSW 11.5 mph - N/A   Overcast
7:52 AM 30.0 °F 21.7 °F 27.0 °F 88% 30.12 in 10.0 mi WSW 9.2 mph - N/A   Overcast
8:16 AM 30.2 °F 21.9 °F 26.6 °F 86% 30.10 in 10.0 mi WSW 9.2 mph - N/A   Overcast
8:52 AM 30.0 °F 21.7 °F 27.0 °F 88% 30.14 in 10.0 mi WSW 9.2 mph - N/A   Overcast
9:52 AM 28.9 °F 18.2 °F 25.0 °F 85% 30.18 in 10.0 mi West 13.8 mph - N/A   Overcast
10:47 AM 28.4 °F 19.7 °F 24.8 °F 86% 30.18 in 8.0 mi West 9.2 mph - N/A   Overcast
10:52 AM 28.9 °F 20.4 °F 25.0 °F 85% 30.20 in 8.0 mi West 9.2 mph - N/A   Overcast
11:52 AM 28.9 °F 21.1 °F 24.1 °F 82% 30.18 in 9.0 mi West 8.1 mph - N/A   Overcast
12:52 PM 28.9 °F 19.8 °F 24.1 °F 82% 30.18 in 7.0 mi SW 10.4 mph - N/A   Overcast
1:31 PM 28.4 °F 19.1 °F 24.8 °F 86% 30.17 in 7.0 mi West 10.4 mph - N/A   Overcast
1:52 PM 28.9 °F 20.4 °F 24.1 °F 82% 30.19 in 8.0 mi SW 9.2 mph - N/A   Overcast
2:52 PM 28.0 °F 18.6 °F 23.0 °F 81% 30.20 in 9.0 mi West 10.4 mph - N/A   Overcast
3:52 PM 28.0 °F 22.8 °F 21.9 °F 78% 30.21 in 9.0 mi WSW 4.6 mph - N/A   Overcast
4:52 PM 28.0 °F 20.8 °F 21.9 °F 78% 30.23 in 8.0 mi WSW 6.9 mph - N/A   Overcast
5:52 PM 27.0 °F 21.6 °F 23.0 °F 85% 30.24 in 9.0 mi WSW 4.6 mph - N/A   Overcast
6:52 PM 27.0 °F 21.6 °F 23.0 °F 85% 30.24 in 8.0 mi WSW 4.6 mph - N/A   Overcast
7:06 PM 26.6 °F 22.6 °F 21.2 °F 80% 30.21 in 8.0 mi SW 3.5 mph - N/A   Overcast
7:52 PM 26.1 °F 21.9 °F 21.9 °F 84% 30.24 in 8.0 mi WSW 3.5 mph - N/A   Overcast
8:52 PM 25.0 °F - 21.9 °F 88% 30.23 in 8.0 mi Calm Calm - N/A   Overcast
9:52 PM 25.0 °F 20.7 °F 21.9 °F 88% 30.21 in 7.0 mi SSW 3.5 mph - N/A   Overcast
10:52 PM 25.0 °F 17.1 °F 21.0 °F 85% 30.22 in 8.0 mi West 6.9 mph - N/A   Overcast
11:52 PM 24.1 °F 13.7 °F 17.1 °F 75% 30.20 in 10.0 mi NNW 10.4 mph - N/A   Overcast